Hourly Data Report for November 18, 2020

VICTORIA UNIVERSITY CS
BRITISH COLUMBIA
Current Station Operator: ECCC - MSC

48°27'25.200" N
123°18'16.600" W
60.10 m
1018598
71783
WYJ

Download Data

Hourly Data (November 2020)
Hourly Data Report for November 18, 2020
TIME
LST
Temp Definition
°C
Dew Point Definition
°C
Rel Hum Definition
%
Precip. Amount Definition
mm

Wind Dir Definition
10's deg

Wind Spd Definition
km/h
Visibility Definition
km
Stn Press Definition
kPa
Hmdx Definition


Wind Chill Definition


Weather Definition


00:00 5.4 5.4 99 0.0 19 1   99.49     LegendNANA
01:00 5.8 5.8 100 0.0 12 1   99.49     LegendNANA
02:00 7.1 7.0 100 0.0 14 2   99.50     LegendNANA
03:00 7.5 7.3 99 0.0 9 2   99.46     LegendNANA
04:00 7.6 7.2 97 0.0 8 4   99.42     LegendNANA
05:00 7.7 6.9 94 0.2 9 4   99.38     LegendNANA
06:00 7.5 7.3 98 0.3 11 2   99.31     LegendNANA
07:00 7.2 6.9 98 0.0 12 2   99.26     LegendNANA
08:00 7.6 7.5 99 0.3 12 1   99.24     LegendNANA
09:00 7.8 7.5 98 0.2 12 2   99.25     LegendNANA
10:00 8.0 7.8 98 0.0 12 2   99.26     LegendNANA
11:00 8.3 6.9 91 0.0 16 2   99.27     LegendNANA
12:00 8.9 7.3 90 0.0 25 1   99.30     LegendNANA
13:00 8.3 7.6 95 0.0 13 2   99.36     LegendNANA
14:00 8.7 7.7 93 0.0 20 1   99.41     LegendNANA
15:00 8.4 7.6 94 0.0   0   99.48     LegendNANA
16:00 7.0 6.4 96 1.5 25 11   99.58     LegendNANA
17:00 6.5 5.7 95 0.4 24 9   99.65     LegendNANA
18:00 6.6 6.0 97 0.0 25 7   99.74     LegendNANA
19:00 6.9 5.9 93 0.0 24 7   99.85     LegendNANA
20:00 6.7 5.1 89 0.0 25 6   99.98     LegendNANA
21:00 6.7 5.5 92 0.2 21 4   100.10     LegendNANA
22:00 6.5 5.5 93 1.1 24 7   100.19     LegendNANA
23:00 6.4 5.3 92 0.0 25 8   100.29     LegendNANA

Notes on Data Quality.

Legend

  • E = Estimated
  • M = Missing
  • NA = Not Available*
  • [empty] = Indicates an unobserved value
Date modified: